Time_in_sec,Mx,My,Mz
1326903321.17346478,0.37138155,-0.17196588,-0.52259672
1326903321.22450948,0.37250626,-0.17197537,-0.52278501
1326903321.27279997,0.37124372,-0.17231330,-0.52285004
1326903321.32561707,0.37088612,-0.17055887,-0.52226037
1326903321.37265587,0.37125930,-0.17255020,-0.52259916
1326903321.42488408,0.37117597,-0.17227772,-0.52633119
1326903321.47452784,0.37114063,-0.17147490,-0.52459997
1326903321.52553654,0.37290579,-0.17067385,-0.52451134
1326903321.57352686,0.37029383,-0.17418587,-0.52201843
1326903321.62475634,0.37281999,-0.17030662,-0.52600873
1326903321.67363930,0.37109110,-0.17228429,-0.52559054
1326903321.72472858,0.37094900,-0.17204604,-0.52584815
1326903321.77252603,0.36998221,-0.17064023,-0.52491599
1326903321.82572579,0.37130967,-0.17040890,-0.52596444
1326903321.87362075,0.37220624,-0.17313345,-0.52378649
1326903321.92461205,0.37232614,-0.17006961,-0.52578837
1326903321.97255611,0.37171316,-0.17275691,-0.52580243
1326903322.02461481,0.37331542,-0.17171364,-0.52634507
1326903322.07262540,0.37070641,-0.17276984,-0.52349645
1326903322.12571454,0.37320632,-0.17124772,-0.52598155
1326903322.17364717,0.37077755,-0.17182490,-0.52436858
1326903322.22556973,0.37161368,-0.17170797,-0.52519405
1326903322.27355409,0.37082931,-0.17298175,-0.52584803
1326903322.32153893,0.37223583,-0.17098820,-0.52752542
1326903322.37351131,0.37261274,-0.17183323,-0.52538824
1326903322.42449808,0.37143588,-0.17202508,-0.52843022
1326903322.47258449,0.37132683,-0.17181581,-0.52582955
1326903322.52150106,0.37201828,-0.17230162,-0.52479577
1326903322.57359457,0.37089089,-0.17287648,-0.52472776
1326903322.62457442,0.37329900,-0.17135960,-0.52659678
1326903322.67353940,0.37180871,-0.17160536,-0.52394247
1326903322.72555923,0.37129495,-0.17028914,-0.52621442
1326903322.77256131,0.37209460,-0.17231613,-0.52342552
1326903322.82134390,0.37264925,-0.17113836,-0.52464598
1326903322.87257195,0.37047237,-0.17347258,-0.52325571
1326903322.92150116,0.37314650,-0.17184390,-0.52486295
1326903322.97256351,0.37137115,-0.17123939,-0.52496189
1326903323.02560401,0.37176964,-0.17194885,-0.52468729
1326903323.07359934,0.37031385,-0.17288029,-0.52376503
1326903323.12554932,0.37210572,-0.17264646,-0.52553385
1326903323.17472816,0.37111983,-0.17147096,-0.52497369
1326903323.22151518,0.37142920,-0.17160133,-0.52396274
1326903323.27262712,0.37301138,-0.17160697,-0.52499598
1326903323.32148314,0.37260002,-0.17033291,-0.52316397
1326903323.37351966,0.37105727,-0.17384388,-0.52185583
1326903323.42518783,0.37240827,-0.17183977,-0.52452981
1326903323.47354484,0.37162250,-0.17126447,-0.52271289
1326903323.52231312,0.37271515,-0.17042637,-0.52564090
1326903323.57251358,0.36965361,-0.17312494,-0.52205992
1326903323.62150955,0.37387022,-0.17104918,-0.52309120
1326903323.67258930,0.37174731,-0.17103155,-0.52270788
1326903323.72150421,0.37142736,-0.17230280,-0.52408218
1326903323.77251291,0.37239799,-0.17162658,-0.52242064
1326903323.82458210,0.37306431,-0.17126612,-0.52400202
1326903323.87351441,0.37051851,-0.17219467,-0.52226859
1326903323.92094064,0.37194556,-0.17207657,-0.52380770
1326903323.97650480,0.37189889,-0.17162251,-0.52232313
1326903324.02153492,0.37180701,-0.17137110,-0.52394420
1326903324.07365370,0.37174878,-0.17313729,-0.52294153
1326903324.12150931,0.37361550,-0.17081222,-0.52310646
1326903324.17364812,0.37193286,-0.17057623,-0.52158344
1326903324.22563672,0.37257141,-0.17021050,-0.52366310
1326903324.27350068,0.37216848,-0.17104350,-0.52194017
1326903324.32470083,0.37234020,-0.16939315,-0.52318436
1326903324.37349582,0.37130260,-0.17279238,-0.52185005
1326903324.42556620,0.37169439,-0.17137240,-0.52370185
1326903324.47363591,0.37182096,-0.17163040,-0.52145791
1326903324.52821231,0.37176460,-0.17150271,-0.52245528
1326903324.57249355,0.37243962,-0.17163450,-0.52167320
1326903324.62462926,0.37328795,-0.17128593,-0.52225131
1326903324.67270589,0.37217867,-0.17244908,-0.52192986
1326903324.72464895,0.37201670,-0.17113163,-0.52467978
1326903324.77353668,0.37332249,-0.17222826,-0.52174616
1326903324.82478452,0.37153843,-0.17113151,-0.52420855
1326903324.87352872,0.37143436,-0.17256078,-0.52172047
1326903324.92316127,0.37222818,-0.17138305,-0.52317649
1326903324.97280908,0.37199694,-0.17056571,-0.52269775
1326903325.02465630,0.37133920,-0.17090510,-0.52322727
1326903325.07350206,0.37119535,-0.17162497,-0.52136713
1326903325.12465954,0.37364683,-0.16915789,-0.52460653
1326903325.17354107,0.37035391,-0.17171821,-0.52290165
1326903325.22545242,0.37112159,-0.17196187,-0.52273482
1326903325.27362943,0.37126184,-0.17290160,-0.52259660
1326903325.32163596,0.37153769,-0.17007864,-0.52409172
1326903325.37262082,0.37054101,-0.17243290,-0.52189320
1326903325.42550182,0.37187895,-0.17173569,-0.52269596
1326903325.47352505,0.37221161,-0.17196476,-0.52354592
1326903325.52461004,0.37187809,-0.17161855,-0.52269679
1326903325.57354331,0.37191945,-0.17349795,-0.52218479
1326903325.62151527,0.37044415,-0.17054296,-0.52340174
1326903325.67254567,0.37154183,-0.17160004,-0.52420515
1326903325.72148442,0.37239021,-0.17150813,-0.52254605
1326903325.77336264,0.37101504,-0.17184734,-0.52236873
1326903325.82462907,0.37118593,-0.17007987,-0.52361375
1326903325.87397504,0.37041706,-0.17278294,-0.52189738
1326903325.92304873,0.37371013,-0.16928689,-0.52348453
1326903325.97363925,0.36947882,-0.17124289,-0.52270329
1326903326.02123117,0.37324637,-0.17153467,-0.52076155
1326903326.07261872,0.37207061,-0.17142121,-0.51921064
1326903326.12149739,0.37239909,-0.16987224,-0.52218437
1326903326.17253876,0.37165719,-0.17127106,-0.52209008
1326903326.22454834,0.37178540,-0.17150667,-0.52208161
1326903326.27357650,0.37298623,-0.17220974,-0.52325451
1326903326.32455277,0.37158370,-0.16973647,-0.52322233
1326903326.37448668,0.37110353,-0.17163023,-0.52075106
1326903326.42153788,0.37075862,-0.17137612,-0.52238566
1326903326.47256517,0.37187809,-0.17161855,-0.52269679
1326903326.52150917,0.37140328,-0.17089458,-0.52434164
1326903326.57261395,0.37131906,-0.17314641,-0.52159834
1326903326.62749696,0.37143371,-0.17031552,-0.52372307
1326903326.67350054,0.37233293,-0.17245571,-0.52142483
1326903326.72153282,0.37351164,-0.17011335,-0.52262008
1326903326.77350259,0.37109050,-0.17174472,-0.52099931
1326903326.82155061,0.37290415,-0.17069623,-0.52227587
1326903326.87265921,0.37011299,-0.17267628,-0.52054828
1326903326.92148399,0.37209752,-0.16986032,-0.52306986
1326903326.97255135,0.37141806,-0.17127100,-0.52185446
1326903327.02466822,0.37317359,-0.17105296,-0.52201062
1326903327.07351780,0.37231985,-0.17376259,-0.51955366
1326903327.12453628,0.37054887,-0.17135896,-0.52388722
1326903327.17255998,0.37242147,-0.17104620,-0.52192664
1326903327.22453594,0.37116334,-0.17103404,-0.52186972
1326903327.27265072,0.37107065,-0.17092216,-0.52125448
1326903327.32551217,0.37254387,-0.16952614,-0.52180648
1326903327.37249851,0.37004551,-0.17221826,-0.51943737
1326903327.42461658,0.37246481,-0.17128837,-0.52117753
1326903327.47356009,0.37164778,-0.17117500,-0.51998001
1326903327.52463031,0.37275550,-0.16764945,-0.52230495
1326903327.57619882,0.37160257,-0.17282669,-0.51872909
1326903327.62450671,0.37259400,-0.17070538,-0.52105051
1326903327.67265677,0.37137991,-0.17198828,-0.52036124
1326903327.72548366,0.37169287,-0.17045905,-0.52134866
1326903327.77252889,0.37221533,-0.17081846,-0.52106994
1326903327.82531500,0.37347433,-0.17094775,-0.52112603
1326903327.87353325,0.37158954,-0.17294118,-0.51897740
1326903327.92466688,0.37324381,-0.17118327,-0.52076411
1326903327.97355008,0.37165117,-0.17164353,-0.51997662
1326903328.02453041,0.37117308,-0.16951528,-0.52150714
1326903328.07265854,0.37027347,-0.17163135,-0.51980186
1326903328.12674332,0.37325868,-0.17036730,-0.52039641
1326903328.17262387,0.37354454,-0.17107807,-0.51987946
1326903328.22455049,0.37099612,-0.17139857,-0.52038580
1326903328.27253747,0.37187716,-0.17269382,-0.52057821
1326903328.32463360,0.37368354,-0.16778392,-0.52150935
1326903328.37257886,0.36997175,-0.17255516,-0.52080506
1326903328.42555356,0.37273693,-0.17106076,-0.52079201
1326903328.47355413,0.37231317,-0.17188980,-0.51944280
1326903328.52149773,0.37127864,-0.17044841,-0.52199179
1326903328.57342029,0.37085378,-0.17303179,-0.52087885
1326903328.62562919,0.37448397,-0.16967139,-0.52095681
1326903328.67473197,0.37232444,-0.17128439,-0.52143341
1326903328.72453070,0.37180525,-0.17232923,-0.52182645
1326903328.77353287,0.37259039,-0.17236498,-0.51905215
1326903328.82138944,0.37183496,-0.17069730,-0.52109104
1326903328.87258148,0.37123856,-0.17280290,-0.52073568
1326903328.92151046,0.37138781,-0.17117098,-0.52011812
1326903328.97251701,0.37174737,-0.17128821,-0.52047068
1326903329.02140594,0.37093380,-0.17045097,-0.52138925
1326903329.07351351,0.37200034,-0.17248328,-0.51833767
1326903329.12456107,0.37356654,-0.16813529,-0.52138901
1326903329.17253280,0.37096930,-0.17176709,-0.51864606
1326903329.22594786,0.37166950,-0.17010370,-0.52172494
1326903329.27255535,0.37340501,-0.17119122,-0.52013451
1326903329.32156348,0.37104663,-0.16977058,-0.51927674
1326903329.37364817,0.37202010,-0.17304920,-0.52031970
1326903329.42464590,0.37227082,-0.17082901,-0.52007335
1326903329.47364259,0.37149444,-0.17154217,-0.51824707
1326903329.52154112,0.37242502,-0.17057899,-0.52180552
1326903329.57352805,0.37223241,-0.17341776,-0.51881558
1326903329.62229824,0.37307516,-0.16944206,-0.51904655
1326903329.67313218,0.37160975,-0.17095652,-0.51836914
1326903329.72150326,0.37121573,-0.16896124,-0.51840401
1326903329.77269030,0.37278008,-0.17343107,-0.51804113
1326903329.82555079,0.37147209,-0.16917580,-0.52062422
1326903329.87298298,0.37166157,-0.17237003,-0.51761144
1326903329.92552614,0.37312633,-0.16861029,-0.52029151
1326903329.97351837,0.37160975,-0.17095652,-0.51836914
1326903330.02095342,0.37067649,-0.17105500,-0.51928759
1326903330.07364488,0.37227866,-0.17120412,-0.51771080
1326903330.12548304,0.37291571,-0.16992503,-0.51743728
1326903330.17262769,0.37277070,-0.17214261,-0.51805055
1326903330.22462249,0.37227094,-0.16989328,-0.51995569
1326903330.27594519,0.37343198,-0.17133601,-0.51739991
1326903330.32562447,0.37236211,-0.16909182,-0.51821774
1326903330.37354112,0.36941192,-0.17422253,-0.51747024
1326903330.42450571,0.37108046,-0.16966005,-0.51865476
1326903330.47264934,0.37202212,-0.17166863,-0.51784545
1326903330.52935362,0.37145221,-0.16954564,-0.51875991
1326903330.57270551,0.37148586,-0.17156322,-0.51613617
1326903330.62571788,0.37141150,-0.16991152,-0.51726925
1326903330.67717385,0.37189999,-0.17131720,-0.51773018
1326903330.72167921,0.37275472,-0.16778897,-0.52006865
1326903330.77354884,0.37177154,-0.17164576,-0.51649159
1326903330.82504845,0.37165731,-0.17022072,-0.51837003
1326903330.87363601,0.37086001,-0.17280079,-0.51715302
1326903330.92551041,0.37176457,-0.17138785,-0.51885283
1326903330.97263217,0.37182331,-0.17280234,-0.51797074
1326903331.02452564,0.37083170,-0.17024301,-0.51866400
1326903331.07550931,0.37253839,-0.17307961,-0.51780808
1326903331.12462306,0.37141660,-0.17061430,-0.51726413
1326903331.17352462,0.37203515,-0.17155415,-0.51759714
1326903331.22480917,0.37311324,-0.16991718,-0.51842028
1326903331.27254677,0.37149704,-0.17215021,-0.51600730
1326903331.32181334,0.37197989,-0.16967212,-0.51835829
1326903331.37249351,0.37155235,-0.17283985,-0.51736563
1326903331.42461753,0.37339729,-0.17132942,-0.51802278
1326903331.47360229,0.37132466,-0.17155530,-0.51676577
1326903331.52170134,0.37230125,-0.16775112,-0.52009106
1326903331.57349944,0.37102285,-0.17304295,-0.51652187
1326903331.62151647,0.37354320,-0.17058960,-0.51851517
1326903331.67249513,0.37136942,-0.17208248,-0.51924157
1326903331.72148466,0.37285617,-0.17068942,-0.51954442
1326903331.77249885,0.37245920,-0.17208537,-0.52005255
1326903331.82452965,0.37290832,-0.16903943,-0.52067053
1326903331.87351227,0.37154517,-0.17314570,-0.51847988
1326903331.92457986,0.37142766,-0.17031671,-0.52024406
1326903331.97352409,0.37358537,-0.17232907,-0.52023911
1326903332.02155232,0.37336305,-0.16961980,-0.52163553
1326903332.07256079,0.37201586,-0.17246354,-0.52032399
1326903332.12124372,0.37398413,-0.16861445,-0.52074242
1326903332.17365265,0.37216428,-0.17071450,-0.51970732
1326903332.22450495,0.37428534,-0.17143358,-0.52021003
1326903332.27179909,0.37231055,-0.17128175,-0.52168256
1326903332.32461905,0.37409440,-0.16749495,-0.52409452
1326903332.37353778,0.37308115,-0.17255791,-0.52026445
1326903332.42111349,0.37094846,-0.17087843,-0.52212816
1326903332.47351551,0.37349182,-0.17184351,-0.52186155
1326903332.52151084,0.37414089,-0.17033315,-0.52134079
1326903332.57264185,0.37320536,-0.17351536,-0.52174348
1326903332.62507248,0.37220237,-0.16974057,-0.52343768
1326903332.67352605,0.37362492,-0.17235732,-0.52085984
1326903332.72501016,0.37348819,-0.17095038,-0.52087688
1326903332.77369475,0.37205327,-0.17069340,-0.52170038
1326903332.82497549,0.37374517,-0.16903962,-0.52149504
1326903332.87252402,0.37372121,-0.17361858,-0.52022290
1326903332.92148232,0.37170663,-0.16983387,-0.52197081
1326903332.97264695,0.37338638,-0.16997507,-0.52125937
1326903333.02092671,0.37235886,-0.17066297,-0.52168190
1326903333.07352495,0.37209535,-0.17231819,-0.51982206
1326903333.12452340,0.37413767,-0.16748048,-0.52558225
1326903333.17415094,0.37235519,-0.17206562,-0.52192068
1326903333.22451353,0.37369043,-0.17008170,-0.52260816
1326903333.27264309,0.37325466,-0.16995002,-0.52362567
1326903333.32550454,0.37167537,-0.17029570,-0.52259004
1326903333.37285781,0.37302750,-0.17184603,-0.52114135
1326903333.42552614,0.37156165,-0.17205094,-0.52258396
1326903333.47349882,0.37170467,-0.17147072,-0.52220786
1326903333.52563310,0.37153062,-0.17064172,-0.52296788
1326903333.57253885,0.37002227,-0.17217031,-0.52080280
1326903333.62472486,0.37470493,-0.16950826,-0.52243388
1326903333.67365146,0.37205821,-0.17076816,-0.52256638
1326903333.72548509,0.37205213,-0.17088395,-0.52269006
1326903333.77258801,0.37244630,-0.17100774,-0.52241981
1326903333.82162952,0.37255368,-0.17123933,-0.52278495
1326903333.87349820,0.37250885,-0.17258342,-0.52054524
1326903333.92183042,0.37315905,-0.16880506,-0.52426243
1326903333.97352433,0.37209728,-0.17173178,-0.52330524
1326903334.02156067,0.37103513,-0.17079844,-0.52187818
1326903334.07363677,0.37018833,-0.17206034,-0.52365321
1326903334.12834430,0.37319824,-0.17101449,-0.52250379
1326903334.17262673,0.37221923,-0.17171162,-0.52205455
1326903334.22238016,0.37313682,-0.17018421,-0.52350616
1326903334.27353811,0.37215173,-0.17099713,-0.52318060
1326903334.32153392,0.37206161,-0.17123659,-0.52256292
1326903334.37292266,0.37053847,-0.17238885,-0.52288449
1326903334.42456436,0.37226614,-0.17029452,-0.52330351
1326903334.47251439,0.37256753,-0.17124197,-0.52253586
1326903334.52162838,0.37148306,-0.16981407,-0.52372110
1326903334.57261634,0.37132862,-0.17193510,-0.52222466
1326903334.62450004,0.37258676,-0.17007619,-0.52204633
1326903334.67364335,0.37167865,-0.17169966,-0.52270430
1326903334.72454572,0.37353897,-0.16829877,-0.52511191
1326903334.77386165,0.37364686,-0.17171066,-0.52359253
1326903334.82129025,0.37289771,-0.17018415,-0.52327061
1326903334.87335443,0.37126622,-0.17192324,-0.52334559
1326903334.92150998,0.37253198,-0.17086169,-0.52539617
1326903334.97263265,0.37299621,-0.17205128,-0.52399737
1326903335.02146244,0.37304667,-0.17016707,-0.52512521
1326903335.07603979,0.37212190,-0.17356423,-0.52403349
1326903335.12128115,0.37203741,-0.17076421,-0.52293998
1326903335.17355609,0.37124896,-0.17145218,-0.52359807
1326903335.22116923,0.37210500,-0.17028658,-0.52393299
1326903335.27317810,0.37235686,-0.17204323,-0.52415568
1326903335.32148290,0.37165099,-0.17050226,-0.52532148
1326903335.37254024,0.37355334,-0.17148168,-0.52297825
1326903335.42126751,0.37272513,-0.17146042,-0.52426422
1326903335.47360969,0.37178695,-0.17085624,-0.52518761
1326903335.52564669,0.37410870,-0.17016469,-0.52643430
1326903335.57364249,0.37066045,-0.17367573,-0.52311742
1326903335.62103987,0.37201998,-0.17097209,-0.52554685
1326903335.67365122,0.37282753,-0.17005387,-0.52451688
1326903335.72159719,0.37293038,-0.17157100,-0.52512163
1326903335.77264094,0.37187091,-0.17192470,-0.52380997
1326903335.82451367,0.37255204,-0.16981301,-0.52490574
1326903335.87561131,0.37195578,-0.17191814,-0.52455044
1326903335.92091560,0.37256554,-0.17262223,-0.52500963
1326903335.97353244,0.37298515,-0.17052890,-0.52400851
1326903336.02454805,0.37179559,-0.17109178,-0.52506137
1326903336.07263589,0.37273365,-0.17288807,-0.52201897
1326903336.12548208,0.37245488,-0.17098667,-0.52453029
1326903336.17350483,0.37313667,-0.17111973,-0.52362382
1326903336.22549605,0.37175390,-0.17227599,-0.52368957
1326903336.27617407,0.37187624,-0.17075627,-0.52356946
1326903336.32449436,0.37348348,-0.16828822,-0.52610821
1326903336.37352419,0.37279519,-0.17252624,-0.52313566
1326903336.42448902,0.37281001,-0.17145386,-0.52500474
1326903336.47250843,0.37192476,-0.17050891,-0.52493435
1326903336.52578068,0.37334123,-0.17017767,-0.52436441
1326903336.57420135,0.37242550,-0.17100377,-0.52279347
1326903336.62448859,0.37316877,-0.17051841,-0.52524042
1326903336.67350745,0.37279350,-0.17229202,-0.52313733
1326903336.72513986,0.37263855,-0.17123277,-0.52352548
1326903336.77349639,0.37186822,-0.17250891,-0.52393019
1326903336.82456946,0.37150300,-0.16944432,-0.52558506
1326903336.87351108,0.37208751,-0.17194317,-0.52218413
1326903336.92551327,0.37200201,-0.16970499,-0.52344584
1326903336.97263765,0.37221396,-0.17168793,-0.52441406
1326903337.02459121,0.37365475,-0.17089355,-0.52334940
1326903337.07365918,0.37195411,-0.17194051,-0.52231544
1326903337.12151432,0.37348166,-0.16898954,-0.52622759
1326903337.17352724,0.37126964,-0.17239165,-0.52334213
1326903337.22148061,0.37125760,-0.17168771,-0.52347183
1326903337.27251101,0.37257785,-0.17145512,-0.52464461
1326903337.32150650,0.37122828,-0.17051269,-0.52385402
1326903337.37258077,0.37083051,-0.17204814,-0.52212632
1326903337.42558622,0.37285951,-0.17064467,-0.52401441
1326903337.47352266,0.37196288,-0.17124051,-0.52207148
1326903337.52137637,0.37205285,-0.17193659,-0.52280682
1326903337.57353806,0.37148443,-0.17311145,-0.52183574
1326903337.62455130,0.37219864,-0.16958003,-0.52442956
1326903337.67256689,0.37076285,-0.17226917,-0.52337003
1326903337.72148180,0.37214139,-0.17052738,-0.52330858
1326903337.77255797,0.37242123,-0.17041825,-0.52279770
1326903337.82535410,0.37361306,-0.17207776,-0.52197766
1326903337.87297392,0.37124813,-0.17159165,-0.52136225
1326903337.92455959,0.37378997,-0.16993830,-0.52533543
1326903337.97352672,0.37304997,-0.17182761,-0.52300274
1326903338.02152681,0.37123850,-0.17191796,-0.52384371
1326903338.07251143,0.37224174,-0.17194979,-0.52167922
1326903338.12156296,0.37302941,-0.16995260,-0.52314103
1326903338.17318940,0.37107128,-0.17228240,-0.52236021
1326903338.22554660,0.37178883,-0.17041151,-0.52283150
1326903338.27352071,0.37308720,-0.17218553,-0.52237743
1326903338.32165861,0.37144223,-0.17111538,-0.52234846
1326903338.37354112,0.37095612,-0.17193237,-0.52212042
1326903338.42154741,0.37361589,-0.17055802,-0.52173972
1326903338.47263861,0.37108189,-0.17088109,-0.52199686
1326903338.52150774,0.37099004,-0.17062974,-0.52361763
1326903338.57253814,0.37061307,-0.17216913,-0.52151626
1326903338.62453318,0.37279105,-0.17100517,-0.52302223
1326903338.67352748,0.37202865,-0.17146420,-0.52318388
1326903338.72562838,0.37518746,-0.16890179,-0.52501976
1326903338.77355504,0.37241918,-0.17324722,-0.52091575
1326903338.82473445,0.37093386,-0.16982315,-0.52226043
1326903338.87303710,0.37208909,-0.17311291,-0.52230012
1326903338.92838097,0.37393364,-0.17160283,-0.52295715
1326903338.97365808,0.37094480,-0.17228106,-0.52236694
1326903339.02557206,0.37256572,-0.17194329,-0.52265531
